Binghamton, NY

5:10 PM EST on December 05, 2019 (GMT -0500)
Binghamton Regional-Link

Weather History for KBGM - May, 2019

Change the Weather History Date:

Saturday, May 18, 2019

  Actual Average Record
Temperature  
Mean Temperature 56 °F 56 °F  
Max Temperature 68 °F 66 °F 87 °F (1962)
Min Temperature 43 °F 47 °F 32 °F (1973)
Degree Days  
Heating Degree Days 9 9  
Month to date heating degree days 220 209  
Since 1 July heating degree days 7010 7008  
Cooling Degree Days 0 1  
Month to date cooling degree days 0 6  
Year to date cooling degree days 0 10  
Growing Degree Days 6 (Base 50)    
Moisture  
Dew Point 38 °F    
Average Humidity 58    
Maximum Humidity 89    
Minimum Humidity 27    
Precipitation  
Precipitation 0.00 in 0.12 in 1.91 in (2015)
Month to date precipitation 3.79 1.97  
Year to date precipitation 15.27 13.15  
Snow  
Snow 0.00 in 0.00 in 1.70 in (2002)
Month to date snowfall 0.0 0.1  
Since 1 July snowfall 81.4 83.4  
Snow Depth 0.00 in    
Sea Level Pressure  
Sea Level Pressure 30.00 in    
Wind  
Wind Speed 6 mph (NNW)    
Max Wind Speed 12 mph    
Max Gust Speed 15 mph    
Visibility 10 miles    
Events      
T = Trace of Precipitation, MM = Missing Value Source: NWS Daily Summary

Daily Weather History Graph

Daily Weather History Graph

Search for Another Location

Airport or City:

Astronomy

May. 18, 2019 Rise Set
Actual Time 5:40 AM EDT 8:21 PM EDT
Civil Twilight 5:07 AM EDT 8:53 PM EDT
Nautical Twilight 4:27 AM EDT 9:34 PM EDT
Astronomical Twilight 3:41 AM EDT 10:20 PM EDT
Moon 8:12 PM EDT (5/18) 5:47 AM EDT (5/18)
Length of Visible Light 15h 45m
Length of Day
14h 40m
Full, 100% of the Moon is Illuminated
May 18
Full
May 18
Full
May 26
Last Quarter
Jun 3
New
Jun 10
First Quarter

Hourly Weather History & Observations

Time (EDT) Temp. Windchill Dew Point Humidity Pressure Visibility Wind Dir Wind Speed Gust Speed Precip Events Conditions
12:53 AM 48.0 °F - 37.9 °F 68% 29.92 in 10.0 mi NW 3.5 mph - N/A   Clear
1:53 AM 48.0 °F - 39.0 °F 71% 29.91 in 10.0 mi NNW 9.2 mph - N/A   Clear
2:53 AM 46.9 °F - 39.0 °F 74% 29.91 in 10.0 mi NW 5.8 mph - N/A   Clear
3:53 AM 45.0 °F 41.8 °F 39.0 °F 80% 29.92 in 10.0 mi NW 5.8 mph - N/A   Clear
4:53 AM 43.0 °F 38.8 °F 39.0 °F 86% 29.95 in 10.0 mi NW 6.9 mph - N/A   Clear
5:53 AM 43.0 °F 38.8 °F 39.0 °F 86% 29.97 in 10.0 mi NW 6.9 mph - N/A   Clear
5:55 AM 43.0 °F 38.2 °F 39.0 °F 86% 29.97 in 10.0 mi NNW 8.1 mph - N/A   Clear
6:53 AM 44.1 °F 39.0 °F 39.9 °F 85% 30.00 in 10.0 mi NNW 9.2 mph - N/A   Clear
7:53 AM 46.9 °F - 41.0 °F 80% 30.01 in 10.0 mi North 8.1 mph - N/A   Clear
8:53 AM 51.1 °F - 39.9 °F 66% 30.03 in 10.0 mi North 5.8 mph - N/A   Clear
9:53 AM 53.1 °F - 41.0 °F 64% 30.06 in 10.0 mi NNW 3.5 mph - N/A   Clear
10:53 AM 55.9 °F - 39.9 °F 55% 30.06 in 10.0 mi Variable 6.9 mph - N/A   Clear
11:53 AM 57.9 °F - 41.0 °F 53% 30.06 in 10.0 mi NNE 8.1 mph - N/A   Clear
12:53 PM 60.1 °F - 41.0 °F 49% 30.04 in 10.0 mi Variable 3.5 mph - N/A   Clear
1:53 PM 63.0 °F - 41.0 °F 45% 30.02 in 10.0 mi NW 6.9 mph - N/A   Clear
2:53 PM 64.0 °F - 37.0 °F 37% 30.00 in 10.0 mi NNW 3.5 mph - N/A   Clear
3:53 PM 66.9 °F - 39.0 °F 36% 30.01 in 10.0 mi NW 9.2 mph - N/A   Clear
4:53 PM 68.0 °F - 33.1 °F 27% 30.01 in 10.0 mi NNW 8.1 mph - N/A   Scattered Clouds
5:53 PM 64.9 °F - 33.1 °F 31% 30.01 in 10.0 mi NNW 4.6 mph - N/A   Overcast
6:53 PM 64.9 °F - 33.1 °F 31% 30.00 in 10.0 mi East 3.5 mph - N/A   Overcast
7:53 PM 64.0 °F - 30.9 °F 29% 30.00 in 10.0 mi ESE 3.5 mph - N/A   Clear
8:53 PM 61.0 °F - 36.0 °F 39% 30.02 in 10.0 mi East 4.6 mph - N/A   Clear
9:53 PM 60.1 °F - 37.0 °F 42% 30.03 in 10.0 mi East 5.8 mph - N/A   Clear
10:53 PM 57.0 °F - 37.9 °F 49% 30.03 in 10.0 mi ESE 4.6 mph - N/A   Clear
11:53 PM 54.0 °F - 39.0 °F 57% 30.02 in 10.0 mi SSE 5.8 mph - N/A   Clear